Location: Observatoire
(46.1952°N, 5.3391°E)
Time: 23:45:50
(UTC+01:00)

Courier 1B Rocket - Pass Details

Date: 25 February 2026
Orbit: 920 x 1201 km, 28.2° (Epoch: 11 March)

Event Time Altitude Azimuth Distance (km) Brightness Sun altitude
Rises 17:21:31 0° 223° (SW) 3,630 9.4 8.6°
Reaches altitude 10° 17:25:49 10° 197° (SSW) 2,640 7.9 8.0°
Maximum altitude 17:28:30 13° 171° (S) 2,415 7.3 7.5°
Drops below altitude 10° 17:31:09 10° 146° (SE) 2,608 7.1 7.1°
Sets 17:35:20 0° 119° (ESE) 3,544 7.5 6.4°
